| time (UTC) | temp F | wind direction | speed knots | gust knots | rain 1hr in | rain 24hr in | rain mn in | humidity % | barometer mb |
| 20260507031020 | 58 | 246 | 1.7 | 5.2 | 0.00 | 0.06 | 0.06 | 94 | 1009.6 |
| 20260507030517 | 58 | 278 | 2.6 | 5.2 | 0.00 | 0.06 | 0.06 | 94 | 1009.5 |
| 20260507030009 | 58 | 218 | 2.6 | 6.1 | 0.00 | 0.06 | 0.06 | 94 | 1009.6 |
| 20260507025508 | 58 | 225 | 2.6 | 6.1 | 0.00 | 0.06 | 0.06 | 94 | 1009.5 |
| 20260507025001 | 58 | 198 | 2.6 | 6.1 | 0.00 | 0.06 | 0.06 | 94 | 1009.5 |
| 20260507024502 | 58 | 161 | 2.6 | 5.2 | 0.00 | 0.06 | 0.06 | 94 | 1009.5 |
| 20260507024000 | 58 | 223 | 2.6 | 5.2 | 0.00 | 0.06 | 0.06 | 94 | 1009.5 |
| 20260507023500 | 58 | 239 | 2.6 | 5.2 | 0.00 | 0.06 | 0.06 | 94 | 1009.4 |
| 20260507023000 | 57 | 191 | 1.7 | 5.2 | 0.00 | 0.06 | 0.06 | 94 | 1009.5 |
| 20260507022501 | 57 | 240 | 2.6 | 5.2 | 0.00 | 0.06 | 0.06 | 94 | 1009.5 |
| 20260507022001 | 57 | 251 | 2.6 | 5.2 | 0.00 | 0.06 | 0.06 | 94 | 1009.5 |
| 20260507021501 | 57 | 236 | 2.6 | 5.2 | 0.00 | 0.06 | 0.06 | 94 | 1009.5 |
| 20260507021001 | 57 | 196 | 1.7 | 5.2 | 0.00 | 0.06 | 0.06 | 94 | 1009.5 |
| 20260507020501 | 57 | 234 | 1.7 | 5.2 | 0.00 | 0.06 | 0.06 | 94 | 1009.5 |
| 20260507020001 | 57 | 177 | 1.7 | 4.3 | 0.00 | 0.06 | 0.06 | 94 | 1009.5 |
| 20260507015502 | 57 | 128 | 1.7 | 5.2 | 0.00 | 0.06 | 0.06 | 94 | 1009.5 |
| 20260507015231 | 57 | 228 | 1.7 | 5.2 | 0.00 | 0.06 | 0.06 | 94 | 1009.5 |
| 20260507014501 | 57 | 235 | 1.7 | 5.2 | 0.00 | 0.06 | 0.06 | 94 | 1009.5 |
| 20260507013957 | 57 | 194 | 2.6 | 5.2 | 0.00 | 0.06 | 0.06 | 94 | 1009.5 |
| 20260507013943 | 57 | 163 | 2.6 | 5.2 | 0.00 | 0.06 | 0.06 | 94 | 1009.6 |
| 20260507012957 | 57 | 196 | 2.6 | 7.0 | 0.00 | 0.06 | 0.06 | 94 | 1009.6 |
| 20260507012452 | 57 | 190 | 2.6 | 7.0 | 0.00 | 0.06 | 0.06 | 94 | 1009.6 |
| 20260507012214 | 57 | 229 | 2.6 | 6.1 | 0.00 | 0.06 | 0.06 | 94 | 1009.8 |
| 20260507011449 | 57 | 248 | 2.6 | 5.2 | 0.00 | 0.06 | 0.06 | 94 | 1009.8 |
| 20260507011411 | 57 | 250 | 2.6 | 4.3 | 0.00 | 0.06 | 0.06 | 94 | 1009.8 |
| 20260507010654 | 57 | 240 | 2.6 | 4.3 | 0.00 | 0.06 | 0.06 | 94 | 1009.8 |
| 20260507005934 | 57 | 244 | 2.6 | 5.2 | 0.00 | 0.06 | 0.06 | 94 | 1009.7 |
| 20260507005421 | 56 | 184 | 2.6 | 5.2 | 0.00 | 0.06 | 0.06 | 94 | 1009.9 |
| 20260507004921 | 56 | 190 | 2.6 | 5.2 | 0.00 | 0.06 | 0.06 | 94 | 1009.9 |
| 20260507004421 | 56 | 184 | 2.6 | 5.2 | 0.00 | 0.06 | 0.06 | 94 | 1009.8 |
| 20260507003922 | 56 | 240 | 2.6 | 5.2 | 0.00 | 0.06 | 0.06 | 94 | 1009.9 |
| 20260507003421 | 56 | 250 | 2.6 | 4.3 | 0.00 | 0.06 | 0.06 | 94 | 1009.8 |
| 20260507002919 | 56 | 161 | 1.7 | 3.5 | 0.00 | 0.06 | 0.06 | 94 | 1009.8 |
| 20260507002419 | 56 | 157 | 2.6 | 6.1 | 0.00 | 0.06 | 0.06 | 94 | 1009.7 |
| 20260507001910 | 56 | 200 | 2.6 | 6.1 | 0.00 | 0.06 | 0.06 | 94 | 1009.7 |
| 20260507001410 | 56 | 237 | 2.6 | 5.2 | 0.00 | 0.06 | 0.06 | 93 | 1009.7 |
| 20260507001133 | 56 | 179 | 2.6 | 5.2 | 0.00 | 0.06 | 0.06 | 93 | 1009.7 |
| 20260507000412 | 56 | 177 | 2.6 | 5.2 | 0.00 | 0.06 | 0.06 | 93 | 1009.7 |
| 20260506235905 | 57 | 215 | 2.6 | 5.2 | 0.00 | 0.06 | 0.06 | 93 | 1009.7 |
| 20260506235846 | 57 | 202 | 2.6 | 5.2 | 0.00 | 0.06 | 0.06 | 93 | 1009.7 |
| 20260506234905 | 57 | 223 | 2.6 | 5.2 | 0.00 | 0.06 | 0.06 | 93 | 1009.7 |
| 20260506234405 | 57 | 272 | 2.6 | 6.1 | 0.00 | 0.06 | 0.06 | 93 | 1009.6 |
| 20260506233905 | 57 | 203 | 2.6 | 6.1 | 0.00 | 0.06 | 0.06 | 93 | 1009.6 |
| 20260506233405 | 57 | 238 | 2.6 | 5.2 | 0.00 | 0.06 | 0.06 | 93 | 1009.5 |
| 20260506232904 | 57 | 252 | 2.6 | 7.0 | 0.01 | 0.06 | 0.06 | 93 | 1009.5 |
| 20260506232406 | 57 | 192 | 3.5 | 7.0 | 0.01 | 0.06 | 0.06 | 93 | 1009.5 |
| 20260506231905 | 57 | 209 | 3.5 | 7.0 | 0.00 | 0.06 | 0.06 | 93 | 1009.6 |
| 20260506231406 | 57 | 221 | 2.6 | 5.2 | 0.00 | 0.06 | 0.06 | 93 | 1009.6 |
| 20260506230906 | 57 | 194 | 2.6 | 5.2 | 0.00 | 0.06 | 0.06 | 93 | 1009.6 |
| 20260506230623 | 57 | 357 | 2.6 | 7.0 | 0.00 | 0.06 | 0.06 | 93 | 1009.6 |
| 20260506225900 | 57 | 229 | 2.6 | 7.0 | 0.00 | 0.06 | 0.06 | 93 | 1009.6 |
| 20260506225354 | 57 | 154 | 2.6 | 6.1 | 0.00 | 0.06 | 0.06 | 92 | 1009.7 |
| 20260506224851 | 57 | 219 | 2.6 | 4.3 | 0.00 | 0.06 | 0.06 | 92 | 1009.6 |
| 20260506224335 | 57 | 161 | 2.6 | 4.3 | 0.00 | 0.06 | 0.06 | 92 | 1009.5 |
| 20260506223835 | 57 | 201 | 2.6 | 4.3 | 0.00 | 0.06 | 0.06 | 92 | 1009.5 |
| 20260506223335 | 58 | 184 | 2.6 | 4.3 | 0.00 | 0.06 | 0.06 | 92 | 1009.4 |
| 20260506223102 | 58 | 175 | 2.6 | 4.3 | 0.00 | 0.05 | 0.05 | 92 | 1009.4 |
| 20260506222559 | 58 | 192 | 2.6 | 4.3 | 0.00 | 0.05 | 0.05 | 92 | 1009.5 |
| 20260506221836 | 58 | 188 | 2.6 | 4.3 | 0.00 | 0.05 | 0.05 | 92 | 1009.5 |
| 20260506221336 | 58 | 211 | 2.6 | 5.2 | 0.00 | 0.05 | 0.05 | 92 | 1009.5 |
| 20260506220830 | 58 | 142 | 2.6 | 5.2 | 0.00 | 0.05 | 0.05 | 91 | 1009.7 |
| 20260506220330 | 58 | 160 | 3.5 | 5.2 | 0.00 | 0.05 | 0.05 | 91 | 1009.8 |
| 20260506215830 | 58 | 173 | 2.6 | 5.2 | 0.00 | 0.05 | 0.05 | 91 | 1009.9 |
| 20260506215327 | 59 | 191 | 2.6 | 5.2 | 0.00 | 0.05 | 0.05 | 91 | 1009.8 |
| 20260506214825 | 59 | 275 | 1.7 | 5.2 | 0.00 | 0.05 | 0.05 | 90 | 1009.8 |
| 20260506214547 | 59 | 174 | 1.7 | 6.1 | 0.00 | 0.05 | 0.05 | 90 | 1010.0 |
| 20260506213818 | 59 | 171 | 2.6 | 6.1 | 0.00 | 0.05 | 0.05 | 90 | 1009.9 |
| 20260506213318 | 59 | 174 | 3.5 | 7.0 | 0.00 | 0.05 | 0.05 | 90 | 1009.9 |
| 20260506212813 | 60 | 228 | 3.5 | 7.8 | 0.00 | 0.05 | 0.05 | 90 | 1010.0 |
| 20260506212313 | 60 | 247 | 3.5 | 9.6 | 0.00 | 0.05 | 0.05 | 89 | 1010.0 |
| 20260506211813 | 60 | 221 | 3.5 | 9.6 | 0.00 | 0.05 | 0.05 | 89 | 1010.0 |
| 20260506211312 | 60 | 197 | 3.5 | 7.0 | 0.00 | 0.05 | 0.05 | 89 | 1010.1 |
| 20260506210812 | 60 | 198 | 2.6 | 7.0 | 0.00 | 0.05 | 0.05 | 90 | 1010.2 |
| 20260506210313 | 60 | 186 | 2.6 | 7.8 | 0.00 | 0.05 | 0.05 | 90 | 1010.2 |
| 20260506205813 | 60 | 286 | 3.5 | 7.8 | 0.00 | 0.05 | 0.05 | 90 | 1010.2 |
| 20260506205313 | 60 | 192 | 2.6 | 7.8 | 0.00 | 0.05 | 0.05 | 90 | 1010.3 |
| 20260506204813 | 60 | 168 | 2.6 | 8.7 | 0.00 | 0.05 | 0.05 | 90 | 1010.3 |
| 20260506204531 | 59 | 45 | 3.5 | 8.7 | 0.00 | 0.05 | 0.05 | 90 | 1010.3 |
| 20260506203813 | 59 | 273 | 3.5 | 7.8 | 0.00 | 0.05 | 0.05 | 90 | 1010.3 |
| 20260506203537 | 59 | 150 | 3.5 | 9.6 | 0.01 | 0.05 | 0.05 | 90 | 1010.4 |
| 20260506202810 | 59 | 257 | 4.3 | 9.6 | 0.02 | 0.05 | 0.05 | 90 | 1010.4 |
| 20260506202308 | 59 | 289 | 4.3 | 7.8 | 0.02 | 0.05 | 0.05 | 90 | 1010.4 |
| 20260506201808 | 59 | 206 | 4.3 | 7.8 | 0.03 | 0.05 | 0.05 | 90 | 1010.4 |
| 20260506201308 | 59 | 263 | 3.5 | 9.6 | 0.04 | 0.05 | 0.05 | 90 | 1010.4 |
| 20260506200808 | 59 | 179 | 3.5 | 9.6 | 0.04 | 0.05 | 0.05 | 90 | 1010.5 |
| 20260506200308 | 60 | 247 | 3.5 | 9.6 | 0.04 | 0.05 | 0.05 | 89 | 1010.6 |
| 20260506195808 | 60 | 231 | 3.5 | 6.1 | 0.04 | 0.05 | 0.05 | 89 | 1010.6 |
| 20260506195308 | 60 | 160 | 3.5 | 6.1 | 0.05 | 0.05 | 0.05 | 89 | 1010.5 |
| 20260506194808 | 60 | 173 | 3.5 | 7.0 | 0.05 | 0.05 | 0.05 | 89 | 1010.4 |
| 20260506194530 | 61 | 89 | 3.5 | 7.0 | 0.05 | 0.05 | 0.05 | 88 | 1010.5 |
| 20260506194031 | 61 | 198 | 3.5 | 7.0 | 0.05 | 0.05 | 0.05 | 87 | 1010.6 |
| 20260506193306 | 62 | 172 | 2.6 | 5.2 | 0.04 | 0.04 | 0.04 | 87 | 1010.6 |
| 20260506193027 | 62 | 214 | 2.6 | 7.0 | 0.03 | 0.03 | 0.03 | 86 | 1010.6 |
| 20260506192306 | 62 | 187 | 3.5 | 7.0 | 0.03 | 0.03 | 0.03 | 85 | 1010.6 |
| 20260506191806 | 62 | 203 | 3.5 | 7.0 | 0.02 | 0.02 | 0.02 | 84 | 1010.7 |
| 20260506191307 | 63 | 213 | 3.5 | 8.7 | 0.02 | 0.02 | 0.02 | 83 | 1010.6 |
| 20260506190807 | 63 | 162 | 3.5 | 8.7 | 0.01 | 0.01 | 0.01 | 82 | 1010.7 |
| 20260506190307 | 64 | 207 | 3.5 | 6.1 | 0.01 | 0.01 | 0.01 | 80 | 1010.8 |
| 20260506190031 | 64 | 319 | 3.5 | 7.8 | 0.01 | 0.01 | 0.01 | 79 | 1010.8 |
| 20260506185307 | 64 | 231 | 3.5 | 7.8 | 0.00 | 0.00 | 0.00 | 78 | 1010.9 |
| 20260506185029 | 64 | 178 | 3.5 | 7.8 | 0.00 | 0.00 | 0.00 | 77 | 1011.0 |
| 20260506184308 | 64 | 146 | 3.5 | 7.8 | 0.00 | 0.00 | 0.00 | 77 | 1011.0 |
| 20260506183808 | 65 | 205 | 3.5 | 7.8 | 0.00 | 0.00 | 0.00 | 76 | 1010.8 |
| 20260506183528 | 65 | 187 | 3.5 | 7.8 | 0.00 | 0.00 | 0.00 | 75 | 1010.9 |
| 20260506182809 | 66 | 311 | 3.5 | 7.8 | 0.00 | 0.00 | 0.00 | 74 | 1011.0 |
| 20260506182052 | 66 | 164 | 3.5 | 7.8 | 0.00 | 0.00 | 0.00 | 74 | 1011.1 |
| 20260506181551 | 66 | 177 | 3.5 | 8.7 | 0.00 | 0.00 | 0.00 | 73 | 1011.1 |
| 20260506181046 | 66 | 175 | 4.3 | 8.7 | 0.00 | 0.00 | 0.00 | 73 | 1011.1 |
| 20260506180546 | 66 | 204 | 3.5 | 8.7 | 0.00 | 0.00 | 0.00 | 72 | 1011.0 |
| 20260506180046 | 67 | 162 | 3.5 | 7.8 | 0.00 | 0.00 | 0.00 | 72 | 1011.1 |
| 20260506175546 | 67 | 102 | 3.5 | 7.8 | 0.00 | 0.00 | 0.00 | 71 | 1011.2 |
| 20260506175046 | 67 | 171 | 3.5 | 7.0 | 0.00 | 0.00 | 0.00 | 70 | 1011.3 |
| 20260506174546 | 67 | 211 | 3.5 | 7.8 | 0.00 | 0.00 | 0.00 | 70 | 1011.3 |
| 20260506174313 | 68 | 200 | 3.5 | 7.8 | 0.00 | 0.00 | 0.00 | 69 | 1011.3 |
| 20260506173546 | 68 | 184 | 3.5 | 6.1 | 0.00 | 0.00 | 0.00 | 69 | 1011.4 |
| 20260506173046 | 68 | 203 | 3.5 | 7.0 | 0.00 | 0.00 | 0.00 | 69 | 1011.5 |
| 20260506172542 | 68 | 159 | 3.5 | 7.0 | 0.00 | 0.00 | 0.00 | 68 | 1011.7 |
| 20260506172040 | 68 | 305 | 3.5 | 7.8 | 0.00 | 0.00 | 0.00 | 68 | 1011.7 |
| 20260506171541 | 68 | 10 | 4.3 | 8.7 | 0.00 | 0.00 | 0.00 | 68 | 1011.6 |
| 20260506171041 | 69 | 179 | 4.3 | 8.7 | 0.00 | 0.00 | 0.00 | 68 | 1011.5 |
| 20260506170541 | 69 | 237 | 3.5 | 7.8 | 0.00 | 0.00 | 0.00 | 67 | 1011.5 |
| 20260506170041 | 69 | 246 | 3.5 | 10.4 | 0.00 | 0.00 | 0.00 | 66 | 1011.4 |
| 20260506165541 | 69 | 334 | 3.5 | 10.4 | 0.00 | 0.00 | 0.00 | 68 | 1011.5 |
| 20260506165041 | 69 | 185 | 4.3 | 12.2 | 0.00 | 0.00 | 0.00 | 66 | 1011.6 |
| 20260506164541 | 69 | 113 | 4.3 | 12.2 | 0.00 | 0.00 | 0.00 | 66 | 1011.7 |
| 20260506164041 | 69 | 249 | 4.3 | 12.2 | 0.00 | 0.00 | 0.00 | 67 | 1011.8 |
| 20260506164022 | 69 | 160 | 5.2 | 10.4 | 0.00 | 0.00 | 0.00 | 66 | 1012.0 |
| 20260506163042 | 69 | 229 | 5.2 | 10.4 | 0.00 | 0.00 | 0.00 | 66 | 1012.0 |
| 20260506162541 | 69 | 169 | 5.2 | 12.2 | 0.00 | 0.00 | 0.00 | 66 | 1012.2 |
| 20260506162041 | 69 | 172 | 5.2 | 12.2 | 0.00 | 0.00 | 0.00 | 65 | 1012.2 |
| 20260506161541 | 69 | 180 | 5.2 | 8.7 | 0.00 | 0.00 | 0.00 | 66 | 1012.0 |
| 20260506161304 | 69 | 188 | 4.3 | 7.8 | 0.00 | 0.00 | 0.00 | 65 | 1012.2 |
| 20260506160541 | 70 | 175 | 3.5 | 7.0 | 0.00 | 0.00 | 0.00 | 66 | 1012.3 |
| 20260506160036 | 70 | 172 | 2.6 | 7.0 | 0.00 | 0.00 | 0.00 | 66 | 1012.3 |
| 20260506155536 | 70 | 144 | 3.5 | 8.7 | 0.00 | 0.00 | 0.00 | 65 | 1012.4 |
| 20260506155037 | 70 | 262 | 4.3 | 10.4 | 0.00 | 0.00 | 0.00 | 64 | 1012.5 |
| 20260506154536 | 70 | 268 | 3.5 | 10.4 | 0.00 | 0.00 | 0.00 | 64 | 1012.6 |
| 20260506154036 | 70 | 226 | 3.5 | 7.8 | 0.00 | 0.00 | 0.00 | 65 | 1012.5 |
| 20260506153536 | 70 | 135 | 4.3 | 7.8 | 0.00 | 0.00 | 0.00 | 65 | 1012.5 |
| 20260506153036 | 70 | 191 | 4.3 | 9.6 | 0.00 | 0.00 | 0.00 | 65 | 1012.6 |
| 20260506152802 | 70 | 208 | 3.5 | 9.6 | 0.00 | 0.00 | 0.00 | 66 | 1012.7 |
| 20260506152036 | 69 | 184 | 2.6 | 10.4 | 0.00 | 0.00 | 0.00 | 68 | 1012.7 |
| 20260506151536 | 69 | 168 | 3.5 | 10.4 | 0.00 | 0.00 | 0.00 | 68 | 1012.8 |
| 20260506151036 | 69 | 299 | 3.5 | 8.7 | 0.00 | 0.00 | 0.00 | 69 | 1012.7 |
| 20260506150536 | 69 | 164 | 3.5 | 7.0 | 0.00 | 0.00 | 0.00 | 68 | 1012.8 |
| 20260506150036 | 68 | 160 | 2.6 | 7.0 | 0.00 | 0.00 | 0.00 | 69 | 1012.9 |
| 20260506145536 | 68 | 175 | 3.5 | 8.7 | 0.00 | 0.00 | 0.00 | 70 | 1012.8 |
| 20260506145251 | 68 | 253 | 3.5 | 9.6 | 0.00 | 0.00 | 0.00 | 71 | 1012.8 |
| 20260506144756 | 68 | 280 | 3.5 | 9.6 | 0.00 | 0.00 | 0.00 | 70 | 1012.8 |
| 20260506144030 | 68 | 176 | 2.6 | 7.0 | 0.00 | 0.00 | 0.00 | 70 | 1012.8 |
| 20260506143531 | 68 | 278 | 3.5 | 7.0 | 0.00 | 0.00 | 0.00 | 69 | 1012.7 |
| 20260506143031 | 68 | 264 | 4.3 | 8.7 | 0.00 | 0.00 | 0.00 | 69 | 1012.7 |
| 20260506142531 | 68 | 170 | 4.3 | 10.4 | 0.00 | 0.00 | 0.00 | 69 | 1012.6 |
| 20260506142031 | 68 | 164 | 4.3 | 10.4 | 0.00 | 0.00 | 0.00 | 69 | 1012.6 |
| 20260506141531 | 68 | 24 | 4.3 | 10.4 | 0.00 | 0.00 | 0.00 | 68 | 1012.7 |
| 20260506141031 | 68 | 178 | 4.3 | 10.4 | 0.00 | 0.00 | 0.00 | 68 | 1012.8 |
| 20260506140531 | 68 | 250 | 4.3 | 10.4 | 0.00 | 0.00 | 0.00 | 68 | 1012.9 |
| 20260506140031 | 68 | 287 | 3.5 | 10.4 | 0.00 | 0.00 | 0.00 | 68 | 1012.7 |
| 20260506135531 | 67 | 204 | 3.5 | 7.8 | 0.00 | 0.00 | 0.00 | 70 | 1012.7 |
| 20260506135031 | 67 | 177 | 4.3 | 8.7 | 0.00 | 0.00 | 0.00 | 69 | 1012.6 |
| 20260506134531 | 67 | 185 | 5.2 | 8.7 | 0.00 | 0.00 | 0.00 | 70 | 1012.7 |
| 20260506134257 | 67 | 211 | 5.2 | 8.7 | 0.00 | 0.00 | 0.00 | 70 | 1012.9 |
| 20260506133525 | 67 | 182 | 4.3 | 7.8 | 0.00 | 0.00 | 0.00 | 71 | 1012.9 |
| 20260506133026 | 67 | 169 | 3.5 | 7.8 | 0.00 | 0.00 | 0.00 | 71 | 1013.1 |
| 20260506132526 | 66 | 176 | 3.5 | 7.8 | 0.00 | 0.00 | 0.00 | 73 | 1013.2 |
| 20260506132027 | 65 | 263 | 3.5 | 9.6 | 0.00 | 0.00 | 0.00 | 74 | 1013.3 |
| 20260506131526 | 65 | 311 | 3.5 | 9.6 | 0.00 | 0.00 | 0.00 | 75 | 1013.3 |
| 20260506131026 | 65 | 241 | 3.5 | 7.8 | 0.00 | 0.00 | 0.00 | 76 | 1013.3 |
| 20260506130747 | 64 | 221 | 3.5 | 7.8 | 0.00 | 0.00 | 0.00 | 76 | 1013.3 |
| 20260506130026 | 64 | 200 | 3.5 | 7.8 | 0.00 | 0.00 | 0.00 | 77 | 1013.2 |
| 20260506125526 | 64 | 269 | 4.3 | 12.2 | 0.00 | 0.00 | 0.00 | 78 | 1013.2 |
| 20260506125026 | 63 | 195 | 4.3 | 12.2 | 0.00 | 0.00 | 0.00 | 79 | 1013.2 |
| 20260506124526 | 63 | 263 | 4.3 | 10.4 | 0.00 | 0.00 | 0.00 | 80 | 1013.3 |
| 20260506124026 | 63 | 175 | 3.5 | 7.0 | 0.00 | 0.00 | 0.00 | 80 | 1013.3 |
| 20260506123526 | 63 | 262 | 3.5 | 7.0 | 0.00 | 0.00 | 0.00 | 81 | 1013.2 |
| 20260506123020 | 62 | 220 | 3.5 | 7.0 | 0.00 | 0.00 | 0.00 | 81 | 1013.3 |
| 20260506122746 | 62 | 199 | 2.6 | 6.1 | 0.00 | 0.00 | 0.00 | 82 | 1013.2 |
| 20260506122505 | 62 | 167 | 2.6 | 5.2 | 0.00 | 0.00 | 0.00 | 83 | 1013.2 |
| 20260506121520 | 62 | 181 | 2.6 | 7.0 | 0.00 | 0.00 | 0.00 | 83 | 1013.2 |
| 20260506121015 | 61 | 288 | 2.6 | 7.0 | 0.00 | 0.00 | 0.00 | 84 | 1013.2 |
| 20260506120739 | 61 | 146 | 2.6 | 5.2 | 0.00 | 0.00 | 0.00 | 84 | 1013.4 |
| 20260506120015 | 61 | 158 | 3.5 | 5.2 | 0.00 | 0.00 | 0.00 | 85 | 1013.5 |
| 20260506115515 | 60 | 176 | 3.5 | 5.2 | 0.00 | 0.00 | 0.00 | 86 | 1013.5 |
| 20260506115014 | 60 | 244 | 2.6 | 4.3 | 0.00 | 0.00 | 0.00 | 86 | 1013.7 |
| 20260506114744 | 60 | 210 | 2.6 | 7.0 | 0.00 | 0.00 | 0.00 | 86 | 1013.8 |
| 20260506114009 | 60 | 155 | 2.6 | 7.8 | 0.00 | 0.00 | 0.00 | 86 | 1013.8 |
| 20260506113510 | 60 | 181 | 2.6 | 7.8 | 0.00 | 0.00 | 0.00 | 86 | 1013.8 |
| 20260506113232 | 60 | 177 | 2.6 | 5.2 | 0.00 | 0.00 | 0.00 | 87 | 1013.8 |
| 20260506112733 | 59 | 187 | 2.6 | 5.2 | 0.00 | 0.00 | 0.00 | 87 | 1013.8 |
| 20260506112003 | 59 | 176 | 2.6 | 5.2 | 0.00 | 0.00 | 0.00 | 88 | 1013.8 |
| 20260506111722 | 59 | 174 | 1.7 | 3.5 | 0.00 | 0.00 | 0.00 | 88 | 1013.8 |
| 20260506111000 | 58 | 176 | 2.6 | 3.5 | 0.00 | 0.00 | 0.00 | 89 | 1013.7 |
| 20260506110721 | 58 | 188 | 2.6 | 3.5 | 0.00 | 0.00 | 0.00 | 89 | 1013.7 |
| 20260506110222 | 58 | 177 | 1.7 | 3.5 | 0.00 | 0.00 | 0.00 | 89 | 1013.6 |
| 20260506105501 | 58 | 202 | 1.7 | 4.3 | 0.00 | 0.00 | 0.00 | 88 | 1013.6 |
| 20260506105001 | 58 | 221 | 1.7 | 4.3 | 0.00 | 0.00 | 0.00 | 88 | 1013.6 |
| 20260506104501 | 58 | 148 | 1.7 | 4.3 | 0.00 | 0.00 | 0.00 | 88 | 1013.6 |
| 20260506104000 | 58 | 182 | 2.6 | 3.5 | 0.00 | 0.00 | 0.00 | 88 | 1013.7 |
| 20260506103502 | 58 | 163 | 2.6 | 4.3 | 0.00 | 0.00 | 0.00 | 88 | 1013.6 |
| 20260506102952 | 58 | 206 | 2.6 | 4.3 | 0.00 | 0.00 | 0.00 | 88 | 1013.6 |
| 20260506102446 | 58 | 163 | 2.6 | 4.3 | 0.00 | 0.00 | 0.00 | 88 | 1013.5 |
| 20260506101946 | 58 | 174 | 2.6 | 5.2 | 0.00 | 0.00 | 0.00 | 88 | 1013.5 |
| 20260506101434 | 58 | 185 | 2.6 | 5.2 | 0.00 | 0.00 | 0.00 | 88 | 1013.5 |
| 20260506101201 | 58 | 220 | 2.6 | 7.0 | 0.00 | 0.00 | 0.00 | 88 | 1013.5 |
| 20260506100434 | 58 | 198 | 3.5 | 7.0 | 0.00 | 0.00 | 0.00 | 88 | 1013.5 |
| 20260506095934 | 58 | 253 | 3.5 | 7.0 | 0.00 | 0.00 | 0.00 | 87 | 1013.4 |
| 20260506095435 | 58 | 153 | 3.5 | 6.1 | 0.00 | 0.00 | 0.00 | 87 | 1013.3 |
| 20260506094935 | 58 | 170 | 2.6 | 7.8 | 0.00 | 0.00 | 0.00 | 87 | 1013.3 |
| 20260506094435 | 58 | 184 | 2.6 | 7.8 | 0.00 | 0.00 | 0.00 | 87 | 1013.3 |
| 20260506094159 | 58 | 186 | 2.6 | 5.2 | 0.00 | 0.00 | 0.00 | 87 | 1013.2 |
| 20260506093424 | 59 | 338 | 3.5 | 6.1 | 0.00 | 0.00 | 0.00 | 87 | 1013.3 |
| 20260506092923 | 59 | 161 | 3.5 | 7.0 | 0.00 | 0.00 | 0.00 | 87 | 1013.3 |
| 20260506092423 | 59 | 195 | 3.5 | 7.0 | 0.00 | 0.00 | 0.00 | 87 | 1013.3 |
| 20260506091923 | 59 | 263 | 3.5 | 6.1 | 0.00 | 0.00 | 0.00 | 86 | 1013.4 |
| 20260506091417 | 59 | 176 | 3.5 | 6.1 | 0.00 | 0.00 | 0.00 | 86 | 1013.3 |
| 20260506090918 | 59 | 226 | 3.5 | 7.0 | 0.00 | 0.00 | 0.00 | 86 | 1013.4 |
| 20260506090417 | 59 | 268 | 3.5 | 7.0 | 0.00 | 0.00 | 0.00 | 86 | 1013.5 |
| 20260506085918 | 59 | 255 | 3.5 | 7.0 | 0.00 | 0.00 | 0.00 | 86 | 1013.5 |
| 20260506085417 | 59 | 227 | 3.5 | 7.0 | 0.00 | 0.00 | 0.00 | 86 | 1013.5 |
| 20260506085137 | 59 | 160 | 3.5 | 7.8 | 0.00 | 0.00 | 0.00 | 86 | 1013.5 |
| 20260506084419 | 59 | 150 | 3.5 | 8.7 | 0.00 | 0.00 | 0.00 | 85 | 1013.6 |
| 20260506083918 | 60 | 240 | 4.3 | 8.7 | 0.00 | 0.00 | 0.00 | 85 | 1013.6 |
| 20260506083642 | 60 | 224 | 3.5 | 7.8 | 0.00 | 0.00 | 0.00 | 85 | 1013.6 |
| 20260506082917 | 60 | 222 | 3.5 | 8.7 | 0.00 | 0.00 | 0.00 | 85 | 1013.6 |
| 20260506082417 | 60 | 174 | 4.3 | 8.7 | 0.00 | 0.00 | 0.00 | 85 | 1013.5 |
| 20260506081913 | 60 | 208 | 3.5 | 7.8 | 0.00 | 0.00 | 0.00 | 84 | 1013.6 |
| 20260506081408 | 60 | 214 | 4.3 | 7.8 | 0.00 | 0.00 | 0.00 | 84 | 1013.5 |
| 20260506081349 | 60 | 233 | 3.5 | 7.8 | 0.00 | 0.00 | 0.00 | 84 | 1013.6 |
| 20260506080406 | 60 | 181 | 3.5 | 7.8 | 0.00 | 0.00 | 0.00 | 84 | 1013.5 |
| 20260506072907 | 61 | 277 | 4.3 | 9.6 | 0.00 | 0.00 | 0.00 | 82 | 1013.3 |
| 20260506072407 | 61 | 261 | 4.3 | 8.7 | 0.00 | 0.00 | 0.00 | 82 | 1013.4 |
| 20260506072124 | 61 | 266 | 3.5 | 8.7 | 0.00 | 0.00 | 0.00 | 83 | 1013.4 |
| 20260506071407 | 61 | 231 | 3.5 | 7.0 | 0.00 | 0.00 | 0.00 | 82 | 1013.3 |
| 20260506070901 | 61 | 231 | 3.5 | 7.8 | 0.00 | 0.00 | 0.00 | 82 | 1013.3 |
| 20260506070623 | 61 | 262 | 3.5 | 7.8 | 0.00 | 0.00 | 0.00 | 82 | 1013.3 |
| 20260506062402 | 61 | 186 | 4.3 | 9.6 | 0.00 | 0.00 | 0.00 | 82 | 1013.3 |
| 20260506061902 | 61 | 183 | 3.5 | 7.8 | 0.00 | 0.00 | 0.00 | 81 | 1013.2 |
| 20260506061622 | 61 | 198 | 3.5 | 7.8 | 0.00 | 0.00 | 0.00 | 81 | 1013.2 |
| 20260506060903 | 61 | 157 | 3.5 | 10.4 | 0.00 | 0.00 | 0.00 | 81 | 1013.3 |
| 20260506060359 | 61 | 251 | 3.5 | 10.4 | 0.00 | 0.00 | 0.00 | 80 | 1013.3 |
| 20260506051351 | 62 | 165 | 3.5 | 7.8 | 0.00 | 0.00 | 0.00 | 77 | 1013.8 |
| 20260506050852 | 62 | 259 | 3.5 | 7.8 | 0.00 | 0.00 | 0.00 | 76 | 1013.9 |
| 20260506050351 | 62 | 230 | 3.5 | 8.7 | 0.00 | 0.00 | 0.00 | 76 | 1013.9 |
| 20260506045113 | 62 | 264 | 3.5 | 7.0 | 0.00 | 0.00 | 0.00 | 75 | 1013.9 |
| 20260506044615 | 62 | 120 | 3.5 | 7.8 | 0.00 | 0.00 | 0.00 | 75 | 1014.0 |
| 20260506043840 | 62 | 248 | 3.5 | 8.7 | 0.00 | 0.00 | 0.00 | 74 | 1014.0 |
| 20260506043340 | 62 | 37 | 3.5 | 8.7 | 0.00 | 0.00 | 0.00 | 74 | 1013.9 |
| 20260506042840 | 62 | 145 | 3.5 | 7.8 | 0.00 | 0.00 | 0.00 | 74 | 1014.0 |
| 20260506042340 | 62 | 163 | 3.5 | 8.7 | 0.00 | 0.00 | 0.00 | 74 | 1014.0 |
| 20260506041840 | 62 | 267 | 3.5 | 8.7 | 0.00 | 0.00 | 0.00 | 73 | 1014.0 |
| 20260506041600 | 62 | 169 | 3.5 | 7.8 | 0.00 | 0.00 | 0.00 | 73 | 1014.0 |
| 20260506040840 | 62 | 158 | 3.5 | 6.1 | 0.00 | 0.00 | 0.00 | 73 | 1014.0 |
| 20260506040340 | 62 | 241 | 3.5 | 7.8 | 0.00 | 0.00 | 0.00 | 73 | 1013.9 |
| 20260506035840 | 62 | 175 | 3.5 | 8.7 | 0.00 | 0.00 | 0.00 | 72 | 1014.0 |
| 20260506035340 | 62 | 239 | 3.5 | 9.6 | 0.00 | 0.00 | 0.00 | 72 | 1013.9 |
| 20260506034840 | 62 | 219 | 3.5 | 9.6 | 0.00 | 0.00 | 0.00 | 72 | 1013.9 |
| 20260506034340 | 62 | 233 | 3.5 | 9.6 | 0.00 | 0.00 | 0.00 | 71 | 1013.9 |
| 20260506033841 | 63 | 175 | 3.5 | 9.6 | 0.00 | 0.00 | 0.00 | 71 | 1013.8 |
| 20260506033606 | 63 | 257 | 3.5 | 7.0 | 0.00 | 0.00 | 0.00 | 71 | 1013.8 |
| 20260506032835 | 63 | 328 | 3.5 | 7.0 | 0.00 | 0.00 | 0.00 | 70 | 1013.8 |
| 20260506032334 | 63 | 152 | 3.5 | 8.7 | 0.00 | 0.00 | 0.00 | 70 | 1013.8 |
| 20260506031834 | 63 | 270 | 3.5 | 8.7 | 0.00 | 0.00 | 0.00 | 70 | 1013.8 |
| 20260506031554 | 63 | 185 | 3.5 | 7.8 | 0.00 | 0.00 | 0.00 | 70 | 1013.7 |